Location: ?astrovice
(49.6513°N, 14.9287°E)
Time: 18:00:18
(UTC+00:00)

Cosmos 1603 - Pass Details

Date: 09 April 2020
Orbit: 831 x 859 km, 71.0° (Epoch: 29 May)

Event Time Altitude Azimuth Distance (km) Brightness Sun altitude
Rises 18:16:27 0° 216° (SW) 3,375 7.1 -5.7°
Reaches altitude 10° 18:18:54 10° 219° (SW) 2,442 6.4 -6.1°
Maximum altitude 18:24:28 66° 302° (WNW) 907 4.2 -7.0°
Drops below altitude 10° 18:30:04 10° 25° (NNE) 2,450 6.1 -7.8°
Sets 18:32:32 0° 28° (NNE) 3,388 6.8 -8.2°
